Location: Clifton Park
(41.4873°N, 81.8024°W)
Time: 21:39:45
(UTC+00:00)

Cosmos 1269 Rocket - Pass Details

Date: 21 January 2020
Orbit: 773 x 779 km, 74.1° (Epoch: 27 February)

Event Time Altitude Azimuth Distance (km) Brightness Sun altitude
Rises 00:02:30 0° 338° (NNW) 3,258 7.4 -17.6°
Reaches altitude 10° 00:04:53 10° 337° (NNW) 2,327 6.6 -18.0°
Maximum altitude 00:10:09 74° 253° (WSW) 807 4.2 -19.0°
Drops below altitude 10° 00:15:24 10° 169° (S) 2,314 6.5 -19.9°
Sets 00:17:46 0° 168° (SSE) 3,238 7.2 -20.4°
